McConnell AFB, KS

4:46 AM CDT on March 27, 2017 (GMT -0500)
McConnell Air Force Base

Weather History for KIAB - February, 2013

Change the Weather History Date:

Thursday, February 21, 2013

  Actual Average Record
Temperature  
Mean Temperature 24 °F -  
Max Temperature 32 °F 48 °F 70 °F (2017)
Min Temperature 16 °F 29 °F 16 °F (2013)
Degree Days  
Heating Degree Days 40    
Moisture  
Dew Point 26 °F    
Average Humidity 100    
Maximum Humidity 100    
Minimum Humidity 97    
Precipitation  
Precipitation 0.46 in - - ()
Snow  
Snow 0.00 in - - ()
Snow Depth 5.00 in    
Sea Level Pressure  
Sea Level Pressure 29.82 in    
Wind  
Wind Speed 13 mph (NNE)    
Max Wind Speed 20 mph    
Max Gust Speed 28 mph    
Visibility 2 miles    
Events Fog , Rain , Snow , Thunderstorm    
Averages and records for this station are not official NWS values.
T = Trace of Precipitation, MM = Missing Value Source: NWS Daily Summary

Daily Weather History Graph

Daily Weather History Graph

Search for Another Location

Airport or City:

Trip Planner

Search our weather history database for the weather conditions in past years. The results will help you decide how hot, cold, wet, or windy it might be!

Date:

Astronomy

Feb. 21, 2013 Rise Set
Actual Time 7:10 AM CST 6:15 PM CST
Civil Twilight 6:44 AM CST 6:41 PM CST
Nautical Twilight 6:13 AM CST 7:12 PM CST
Astronomical Twilight 5:43 AM CST 7:42 PM CST
Moon 2:33 PM CST (2/21) 4:13 AM CST (2/21)
Length of Visible Light 11h 57m
Length of Day
11h 04m
Waxing Gibbous, 84% of the Moon is Illuminated
Feb 21
Waxing Gibbous
Feb 25
Full
Mar 4
Last Quarter
Mar 11
New
Mar 19
First Quarter

Hourly Weather History & Observations

Time (CST) Temp. Windchill Dew Point Humidity Pressure Visibility Wind Dir Wind Speed Gust Speed Precip Events Conditions
12:03 AM 24.8 °F 12.4 °F 24.8 °F 100% 30.04 in 10.0 mi ENE 15.0 mph 23.0 mph N/A   Overcast
12:07 AM 24.8 °F 11.9 °F 24.8 °F 100% 30.04 in 10.0 mi ENE 16.1 mph 23.0 mph N/A   Overcast
12:55 AM 25.2 °F 12.0 °F 25.0 °F 99% 30.03 in 10.0 mi ENE 17.3 mph - N/A   Overcast
1:16 AM 24.8 °F 12.9 °F 24.8 °F 100% 30.03 in 6.0 mi ENE 13.8 mph - N/A   Light Freezing Drizzle
1:55 AM 25.2 °F 12.4 °F 24.8 °F 99% 30.02 in 4.0 mi ENE 16.1 mph - 0.00 in   Light Freezing Drizzle
2:01 AM 24.8 °F 12.4 °F 24.8 °F 100% 29.99 in 5.0 mi ENE 15.0 mph - N/A   Light Freezing Drizzle
2:13 AM 24.8 °F 10.7 °F 24.8 °F 100% 29.96 in 5.0 mi ENE 19.6 mph 26.5 mph N/A   Light Freezing Drizzle
2:24 AM 24.8 °F 12.4 °F 24.8 °F 100% 29.97 in 6.0 mi ENE 15.0 mph - N/A   Light Freezing Drizzle
2:42 AM 24.8 °F 11.5 °F 24.8 °F 100% 29.96 in 8.0 mi ENE 17.3 mph - N/A Rain Light Freezing Rain
2:55 AM 25.2 °F 12.4 °F 25.2 °F 100% 29.96 in 8.0 mi ENE 16.1 mph - 0.00 in Snow Light Snow
3:10 AM 24.8 °F 11.1 °F 24.8 °F 100% 29.94 in 5.0 mi ENE 18.4 mph 27.6 mph N/A Snow , Thunderstorm Light Thunderstorms and Snow
3:11 AM 24.8 °F 11.5 °F 24.8 °F 100% 29.94 in 5.0 mi ENE 17.3 mph 27.6 mph N/A Snow , Thunderstorm Light Thunderstorms and Snow
3:24 AM 24.8 °F 12.4 °F 24.8 °F 100% 29.92 in 2.5 mi ENE 15.0 mph - N/A Snow , Thunderstorm Light Thunderstorms and Snow
3:25 AM 24.8 °F 12.9 °F 24.8 °F 100% 29.92 in 2.5 mi ENE 13.8 mph - N/A Snow Light Snow
3:26 AM 24.8 °F 12.4 °F 24.8 °F 100% 29.92 in 2.5 mi ENE 15.0 mph - N/A Snow , Thunderstorm Light Thunderstorms and Snow
3:30 AM 24.8 °F 11.9 °F 24.8 °F 100% 29.92 in 2.0 mi ENE 16.1 mph 23.0 mph N/A Snow , Thunderstorm Light Thunderstorms and Snow
3:32 AM 24.8 °F 12.4 °F 24.8 °F 100% 29.92 in 1.8 mi ENE 15.0 mph 23.0 mph N/A Snow , Thunderstorm Light Thunderstorms and Snow
3:41 AM 24.8 °F 11.5 °F 24.8 °F 100% 29.93 in 1.8 mi East 17.3 mph 24.2 mph N/A Snow Light Snow
3:44 AM 24.8 °F 11.5 °F 24.8 °F 100% 29.92 in 1.2 mi ENE 17.3 mph 24.2 mph N/A Snow Light Snow
3:46 AM 24.8 °F 11.5 °F 24.8 °F 100% 29.91 in 1.0 mi ENE 17.3 mph - N/A Snow Light Snow
3:48 AM 24.8 °F 11.5 °F 24.8 °F 100% 29.91 in 0.8 mi ENE 17.3 mph - N/A Snow Light Snow
3:49 AM 24.8 °F 11.9 °F 24.8 °F 100% 29.91 in 0.8 mi ENE 16.1 mph - N/A Snow Light Snow
3:55 AM 24.4 °F 11.9 °F 24.4 °F 100% 29.90 in 0.8 mi ENE 15.0 mph - 0.02 in Snow Light Snow
3:56 AM 24.8 °F 11.1 °F 24.8 °F 100% 29.90 in 0.5 mi ENE 18.4 mph - N/A Fog , Snow Light Freezing Fog
4:02 AM 24.8 °F 11.9 °F 24.8 °F 100% 29.91 in 0.2 mi ENE 16.1 mph - N/A Fog , Snow Light Freezing Fog
4:03 AM 24.8 °F 11.9 °F 24.8 °F 100% 29.91 in 0.2 mi ENE 16.1 mph - N/A Fog , Snow Light Freezing Fog
4:05 AM 24.8 °F 12.4 °F 24.8 °F 100% 29.91 in 0.2 mi ENE 15.0 mph - N/A Fog , Snow Light Freezing Fog
4:08 AM 24.8 °F 12.4 °F 24.8 °F 100% 29.90 in 0.2 mi ENE 15.0 mph - N/A Fog , Snow Light Freezing Fog
4:09 AM 24.8 °F 11.9 °F 24.8 °F 100% 29.89 in 0.5 mi ENE 16.1 mph - N/A Fog , Snow Light Freezing Fog
4:16 AM 24.8 °F 12.4 °F 24.8 °F 100% 29.88 in 0.5 mi ENE 15.0 mph - N/A Fog , Snow Light Freezing Fog
4:18 AM 24.8 °F 11.5 °F 24.8 °F 100% 29.88 in 0.5 mi NE 17.3 mph - N/A Fog , Snow Light Freezing Fog
4:19 AM 24.8 °F 11.9 °F 24.8 °F 100% 29.87 in 0.5 mi NE 16.1 mph - N/A Fog , Snow Light Freezing Fog
4:21 AM 24.8 °F 11.1 °F 24.8 °F 100% 29.87 in 0.8 mi ENE 18.4 mph - N/A Snow Light Snow
4:24 AM 24.8 °F 11.5 °F 24.8 °F 100% 29.86 in 1.0 mi ENE 17.3 mph 23.0 mph N/A Snow Light Snow
4:25 AM 24.8 °F 11.5 °F 24.8 °F 100% 29.85 in 1.0 mi ENE 17.3 mph 23.0 mph N/A Snow , Thunderstorm Light Thunderstorms and Snow
4:26 AM 24.8 °F 11.5 °F 24.8 °F 100% 29.85 in 1.0 mi NE 17.3 mph 23.0 mph N/A Snow , Thunderstorm Light Thunderstorms and Snow
4:27 AM 24.8 °F 11.1 °F 24.8 °F 100% 29.85 in 1.0 mi ENE 18.4 mph 24.2 mph N/A Snow , Thunderstorm Light Thunderstorms and Snow
4:28 AM 24.8 °F 11.1 °F 24.8 °F 100% 29.85 in 1.2 mi ENE 18.4 mph 24.2 mph N/A Snow , Thunderstorm Light Thunderstorms and Snow
4:30 AM 24.8 °F 10.7 °F 24.8 °F 100% 29.84 in 1.5 mi ENE 19.6 mph 26.5 mph N/A Snow , Thunderstorm Light Thunderstorms and Snow
4:34 AM 24.8 °F 11.1 °F 24.8 °F 100% 29.85 in 2.0 mi ENE 18.4 mph 26.5 mph N/A Snow , Thunderstorm Light Thunderstorms and Snow
4:40 AM 24.8 °F 10.7 °F 24.8 °F 100% 29.85 in 2.0 mi ENE 19.6 mph 26.5 mph N/A Snow Light Snow
4:42 AM 24.8 °F 10.7 °F 24.8 °F 100% 29.86 in 1.8 mi ENE 19.6 mph 26.5 mph N/A Snow Light Snow
4:55 AM 24.8 °F 12.9 °F 24.8 °F 100% 29.88 in 1.5 mi ENE 13.8 mph 25.3 mph 0.11 in Snow Light Snow
4:56 AM 24.8 °F 11.9 °F 24.8 °F 100% 29.88 in 1.0 mi ENE 16.1 mph - N/A Snow Light Snow
4:59 AM 24.8 °F 12.9 °F 24.8 °F 100% 29.88 in 0.8 mi ENE 13.8 mph - N/A Snow Light Snow
5:01 AM 24.8 °F 12.9 °F 24.8 °F 100% 29.88 in 0.8 mi ENE 13.8 mph - N/A Snow Light Snow
5:02 AM 24.8 °F 12.9 °F 24.8 °F 100% 29.88 in 0.8 mi ENE 13.8 mph - N/A Snow Light Snow
5:03 AM 24.8 °F 12.4 °F 24.8 °F 100% 29.88 in 0.8 mi ENE 15.0 mph - N/A Snow Light Snow
5:06 AM 24.8 °F 12.4 °F 24.8 °F 100% 29.88 in 0.8 mi ENE 15.0 mph - N/A Snow Light Snow
5:08 AM 24.8 °F 13.4 °F 24.8 °F 100% 29.89 in 0.8 mi ENE 12.7 mph - N/A Snow Light Snow
5:09 AM 24.8 °F 12.9 °F 24.8 °F 100% 29.89 in 0.5 mi ENE 13.8 mph - N/A Fog , Snow Light Freezing Fog
5:13 AM 24.8 °F 14.0 °F 24.8 °F 100% 29.89 in 0.5 mi ENE 11.5 mph - N/A Fog , Snow Light Freezing Fog
5:17 AM 24.8 °F 13.4 °F 24.8 °F 100% 29.89 in 0.5 mi NE 12.7 mph - N/A Fog , Snow Light Freezing Fog
5:55 AM 24.6 °F 12.7 °F 24.6 °F 100% 29.86 in 0.5 mi ENE 13.8 mph - 0.02 in Fog , Snow Light Freezing Fog
6:00 AM 24.8 °F 11.9 °F 24.8 °F 100% 29.87 in 0.8 mi ENE 16.1 mph - N/A Snow Light Snow
6:02 AM 24.8 °F 13.4 °F 24.8 °F 100% 29.87 in 0.8 mi ENE 12.7 mph - N/A Snow Light Snow
6:03 AM 24.8 °F 12.9 °F 24.8 °F 100% 29.87 in 0.8 mi ENE 13.8 mph - N/A Snow Light Snow
6:07 AM 24.8 °F 11.9 °F 24.8 °F 100% 29.87 in 1.0 mi ENE 16.1 mph - N/A Snow Light Snow
6:11 AM 24.8 °F 11.5 °F 24.8 °F 100% 29.86 in 1.2 mi ENE 17.3 mph 23.0 mph N/A Snow Light Snow
6:16 AM 24.8 °F 11.9 °F 24.8 °F 100% 29.86 in 1.5 mi ENE 16.1 mph - N/A Snow Light Snow
6:17 AM 24.8 °F 11.9 °F 24.8 °F 100% 29.85 in 1.5 mi ENE 16.1 mph - N/A Snow Light Snow
6:18 AM 24.8 °F 11.9 °F 24.8 °F 100% 29.85 in 1.2 mi ENE 16.1 mph - N/A Snow Light Snow
6:21 AM 24.8 °F 12.4 °F 24.8 °F 100% 29.85 in 1.2 mi ENE 15.0 mph - N/A Snow Light Snow
6:22 AM 24.8 °F 12.4 °F 24.8 °F 100% 29.86 in 1.0 mi ENE 15.0 mph - N/A Snow Light Snow
6:25 AM 24.8 °F 11.9 °F 24.8 °F 100% 29.86 in 1.0 mi ENE 16.1 mph - N/A Snow Light Snow
6:26 AM 24.8 °F 11.9 °F 24.8 °F 100% 29.85 in 0.8 mi ENE 16.1 mph - N/A Snow Light Snow
6:29 AM 24.8 °F 11.9 °F 24.8 °F 100% 29.85 in 0.8 mi ENE 16.1 mph - N/A Snow Light Snow
6:30 AM 24.8 °F 11.9 °F 24.8 °F 100% 29.85 in 0.8 mi ENE 16.1 mph - N/A Snow Light Snow
6:31 AM 24.8 °F 11.9 °F 24.8 °F 100% 29.85 in 0.8 mi ENE 16.1 mph - N/A Snow Light Snow
6:32 AM 24.8 °F 12.4 °F 24.8 °F 100% 29.85 in 0.8 mi ENE 15.0 mph - N/A Snow Light Snow
6:34 AM 24.8 °F 11.9 °F 24.8 °F 100% 29.85 in 0.8 mi ENE 16.1 mph - N/A Snow Light Snow
6:41 AM 24.8 °F 11.5 °F 24.8 °F 100% 29.84 in 1.0 mi ENE 17.3 mph - N/A Snow Light Snow
6:49 AM 24.8 °F 13.4 °F 24.8 °F 100% 29.83 in 1.2 mi ENE 12.7 mph - N/A Snow Light Snow
6:55 AM 25.0 °F 13.6 °F 25.0 °F 100% 29.83 in 1.2 mi ENE 12.7 mph - 0.04 in Snow Light Snow
6:59 AM 24.8 °F 12.9 °F 24.8 °F 100% 29.83 in 1.2 mi ENE 13.8 mph - N/A Snow Light Snow
7:01 AM 24.8 °F 13.4 °F 24.8 °F 100% 29.83 in 1.0 mi ENE 12.7 mph - N/A Snow Light Snow
7:04 AM 24.8 °F 13.4 °F 24.8 °F 100% 29.83 in 0.8 mi ENE 12.7 mph - N/A Snow Light Snow
7:24 AM 24.8 °F 13.4 °F 24.8 °F 100% 29.83 in 1.0 mi ENE 12.7 mph - N/A Snow Light Snow
7:28 AM 24.8 °F 12.9 °F 24.8 °F 100% 29.83 in 1.2 mi ENE 13.8 mph - N/A Snow Light Snow
7:33 AM 24.8 °F 13.4 °F 24.8 °F 100% 29.82 in 1.0 mi ENE 12.7 mph - N/A Snow Light Snow
7:35 AM 24.8 °F 13.4 °F 24.8 °F 100% 29.82 in 1.0 mi ENE 12.7 mph - N/A Snow Light Snow
7:39 AM 24.8 °F 14.0 °F 24.8 °F 100% 29.82 in 1.2 mi ENE 11.5 mph - N/A Snow Light Snow
7:42 AM 24.8 °F 14.0 °F 24.8 °F 100% 29.82 in 1.5 mi ENE 11.5 mph - N/A Snow Light Snow
7:45 AM 24.8 °F 14.0 °F 24.8 °F 100% 29.82 in 1.8 mi ENE 11.5 mph - N/A Snow Light Snow
7:46 AM 24.8 °F 14.0 °F 24.8 °F 100% 29.82 in 2.0 mi ENE 11.5 mph - N/A Snow Light Snow
7:55 AM 25.5 °F 15.5 °F 25.5 °F 100% 29.82 in 2.0 mi ENE 10.4 mph - 0.02 in Snow Light Snow
7:56 AM 24.8 °F 14.6 °F 24.8 °F 100% 29.82 in 2.0 mi ENE 10.4 mph - N/A Snow Light Snow
8:03 AM 26.6 °F 16.8 °F 26.6 °F 100% 29.82 in 3.0 mi ENE 10.4 mph - N/A Snow Light Snow
8:12 AM 26.6 °F 16.2 °F 26.6 °F 100% 29.80 in 6.0 mi ENE 11.5 mph - N/A   Overcast
8:55 AM 27.3 °F 18.4 °F 27.3 °F 100% 29.80 in 10.0 mi ENE 9.2 mph - 0.02 in   Overcast
9:10 AM 28.4 °F 19.7 °F 28.4 °F 100% 29.78 in 10.0 mi NE 9.2 mph - N/A   Overcast
9:25 AM 28.4 °F 20.4 °F 28.4 °F 100% 29.79 in 9.0 mi ENE 8.1 mph - N/A   Overcast
9:55 AM 30.4 °F 22.2 °F 30.4 °F 100% 29.78 in 10.0 mi ENE 9.2 mph - 0.03 in   Overcast
10:43 AM 32.0 °F 23.6 °F 32.0 °F 100% 29.78 in 9.0 mi East 10.4 mph - N/A   Overcast
10:55 AM 31.3 °F 22.7 °F 31.3 °F 100% 29.78 in 5.0 mi East 10.4 mph 20.7 mph 0.03 in   Overcast
11:04 AM 32.0 °F 24.2 °F 32.0 °F 100% 29.77 in 5.0 mi East 9.2 mph - N/A   Overcast
11:11 AM 32.0 °F 24.2 °F 32.0 °F 100% 29.77 in 5.0 mi East 9.2 mph - N/A Snow Light Snow
11:46 AM 32.0 °F 24.2 °F 32.0 °F 100% 29.75 in 2.5 mi ENE 9.2 mph - N/A Rain Light Freezing Rain
11:48 AM 32.0 °F 23.0 °F 32.0 °F 100% 29.75 in 2.5 mi East 11.5 mph - N/A Rain Light Freezing Rain
11:49 AM 32.0 °F 23.0 °F 32.0 °F 100% 29.70 in 2.5 mi East 11.5 mph - N/A Snow Light Snow
11:55 AM 31.6 °F 22.6 °F 31.6 °F 100% 29.75 in 2.5 mi East 11.5 mph - 0.03 in Rain Light Freezing Rain
11:58 AM 32.0 °F 24.2 °F 32.0 °F 100% 29.75 in 1.5 mi East 9.2 mph - N/A Rain Light Freezing Rain
12:05 PM 32.0 °F 24.2 °F 32.0 °F 100% 29.75 in 2.0 mi East 9.2 mph - N/A Snow Light Snow
12:39 PM 32.0 °F 26.4 °F 32.0 °F 100% 29.71 in 2.0 mi East 5.8 mph - N/A   Overcast
12:42 PM 32.0 °F 27.5 °F 32.0 °F 100% 29.77 in 2.0 mi East 4.6 mph - N/A   Overcast
12:55 PM 31.6 °F 25.1 °F 31.6 °F 100% 29.76 in 1.8 mi East 6.9 mph - 0.03 in Snow Light Snow
1:15 PM 32.0 °F 28.7 °F 32.0 °F 100% 29.70 in 2.0 mi East 3.5 mph - N/A Snow Light Snow
1:27 PM 32.0 °F - 32.0 °F 100% 29.71 in 2.0 mi Calm Calm - N/A Snow Light Snow
1:32 PM 32.0 °F - 32.0 °F 100% 29.75 in 1.8 mi Calm Calm - N/A Snow Light Snow
1:33 PM 32.0 °F - 32.0 °F 100% 29.75 in 1.8 mi Calm Calm - N/A Snow Light Snow
1:36 PM 32.0 °F - 32.0 °F 100% 29.75 in 1.2 mi Calm Calm - N/A Snow Light Snow
1:38 PM 32.0 °F - 32.0 °F 100% 29.75 in 1.0 mi Calm Calm - N/A Snow Light Snow
1:40 PM 32.0 °F 27.5 °F 32.0 °F 100% 29.75 in 0.8 mi NW 4.6 mph - N/A Snow Light Snow
1:42 PM 30.2 °F 22.6 °F 30.2 °F 100% 29.75 in 0.8 mi NNW 8.1 mph - N/A Snow Light Snow
1:43 PM 30.2 °F 22.6 °F 30.2 °F 100% 29.75 in 0.8 mi NNW 8.1 mph - N/A Snow Light Snow
1:44 PM 30.2 °F 23.4 °F 30.2 °F 100% 29.75 in 0.8 mi NNW 6.9 mph - N/A Snow Light Snow
1:45 PM 30.2 °F 23.4 °F 30.2 °F 100% 29.75 in 0.5 mi NNW 6.9 mph - N/A Fog , Snow Light Freezing Fog
1:55 PM 28.6 °F 21.5 °F 28.6 °F 100% 29.75 in 0.5 mi NNW 6.9 mph - 0.03 in Fog , Snow Light Freezing Fog
1:57 PM 28.4 °F 21.2 °F 28.4 °F 100% 29.75 in 0.5 mi NNW 6.9 mph - N/A Fog , Snow Light Freezing Fog
1:59 PM 28.4 °F 21.2 °F 28.4 °F 100% 29.75 in 0.8 mi North 6.9 mph - N/A Snow Light Snow
2:06 PM 28.4 °F 20.4 °F 28.4 °F 100% 29.75 in 0.8 mi North 8.1 mph - N/A Snow Light Snow
2:07 PM 28.4 °F 20.4 °F 28.4 °F 100% 29.75 in 0.8 mi North 8.1 mph - N/A Snow Light Snow
2:08 PM 28.4 °F 20.4 °F 28.4 °F 100% 29.75 in 0.8 mi North 8.1 mph - N/A Snow Light Snow
2:11 PM 26.6 °F 19.1 °F 26.6 °F 100% 29.75 in 1.0 mi North 6.9 mph - N/A Snow Light Snow
2:13 PM 26.6 °F 20.0 °F 26.6 °F 100% 29.75 in 1.2 mi North 5.8 mph - N/A   Overcast
2:14 PM 26.6 °F 20.0 °F 26.6 °F 100% 29.75 in 1.8 mi North 5.8 mph - N/A Rain Light Freezing Rain
2:15 PM 26.6 °F 19.1 °F 26.6 °F 100% 29.75 in 2.0 mi North 6.9 mph - N/A Rain Light Freezing Rain
2:18 PM 26.6 °F 19.1 °F 26.6 °F 100% 29.75 in 3.0 mi North 6.9 mph - N/A Rain Light Freezing Rain
2:29 PM 26.6 °F 19.1 °F 26.6 °F 100% 29.75 in 5.0 mi North 6.9 mph - N/A Rain Light Freezing Rain
2:33 PM 26.6 °F 19.1 °F 26.6 °F 100% 29.75 in 4.0 mi North 6.9 mph - N/A Rain Light Freezing Rain
2:35 PM 26.6 °F 19.1 °F 26.6 °F 100% 29.75 in 4.0 mi North 6.9 mph - N/A Rain Light Freezing Rain
2:38 PM 26.6 °F 19.1 °F 26.6 °F 100% 29.75 in 3.0 mi North 6.9 mph - N/A Rain Light Freezing Rain
2:39 PM 26.6 °F 20.0 °F 26.6 °F 100% 29.75 in 2.5 mi North 5.8 mph - N/A Rain Light Freezing Rain
2:44 PM 26.6 °F 19.1 °F 26.6 °F 100% 29.74 in 2.5 mi North 6.9 mph - N/A Rain Light Freezing Rain
2:55 PM 27.0 °F 19.5 °F 27.0 °F 100% 29.74 in 2.5 mi North 6.9 mph - 0.03 in   Light Ice Pellets
2:56 PM 26.6 °F 19.1 °F 26.6 °F 100% 29.73 in 3.0 mi Variable 6.9 mph - N/A Snow Light Snow
3:05 PM 26.6 °F 19.1 °F 26.6 °F 100% 29.73 in 3.0 mi North 6.9 mph - N/A Snow Light Snow
3:08 PM 26.6 °F 18.2 °F 26.6 °F 100% 29.73 in 3.0 mi North 8.1 mph - N/A Snow Light Snow
3:15 PM 26.6 °F 18.2 °F 26.6 °F 100% 29.72 in 4.0 mi North 8.1 mph - N/A Snow Light Snow
3:25 PM 26.6 °F 19.1 °F 26.6 °F 100% 29.73 in 2.5 mi NNW 6.9 mph - N/A Snow Light Snow
3:31 PM 26.6 °F 19.1 °F 26.6 °F 100% 29.74 in 1.8 mi NNW 6.9 mph - N/A Snow Light Snow
3:36 PM 26.6 °F 19.1 °F 26.6 °F 100% 29.74 in 1.5 mi North 6.9 mph - N/A Snow Light Snow
3:38 PM 26.6 °F 19.1 °F 26.6 °F 100% 29.74 in 1.2 mi NNW 6.9 mph - N/A Snow Light Snow
3:42 PM 26.6 °F 19.1 °F 26.6 °F 100% 29.74 in 1.0 mi NNW 6.9 mph - N/A Snow Light Snow
3:48 PM 26.6 °F 20.0 °F 26.6 °F 100% 29.75 in 1.0 mi NNW 5.8 mph - N/A Snow Light Snow
3:49 PM 26.6 °F 20.0 °F 26.6 °F 100% 29.75 in 0.8 mi NNW 5.8 mph - N/A Snow Light Snow
3:55 PM 26.4 °F 20.9 °F 26.4 °F 100% 29.75 in 0.8 mi NNW 4.6 mph - 0.02 in Snow Light Snow
3:56 PM 26.6 °F 20.0 °F 26.6 °F 100% 29.75 in 0.8 mi North 5.8 mph - N/A Snow Light Snow
3:57 PM 26.6 °F 20.0 °F 26.6 °F 100% 29.75 in 1.0 mi North 5.8 mph - N/A Snow Light Snow
4:01 PM 26.6 °F 20.0 °F 26.6 °F 100% 29.75 in 1.2 mi NNW 5.8 mph - N/A Snow Light Snow
4:06 PM 26.6 °F 20.0 °F 26.6 °F 100% 29.75 in 1.2 mi NW 5.8 mph - N/A Snow Light Snow
4:08 PM 26.6 °F 19.1 °F 26.6 °F 100% 29.76 in 1.0 mi NW 6.9 mph - N/A Snow Light Snow
4:12 PM 26.6 °F 20.0 °F 26.6 °F 100% 29.76 in 0.8 mi NW 5.8 mph - N/A Snow Light Snow
4:13 PM 26.6 °F 19.1 °F 26.6 °F 100% 29.76 in 0.8 mi WNW 6.9 mph - N/A Snow Light Snow
4:15 PM 26.6 °F 20.0 °F 26.6 °F 100% 29.76 in 0.8 mi WNW 5.8 mph - N/A Snow Light Snow
4:22 PM 26.6 °F 20.0 °F 26.6 °F 100% 29.75 in 0.8 mi NNW 5.8 mph - N/A Snow Light Snow
4:23 PM 26.6 °F 20.0 °F 26.6 °F 100% 29.75 in 0.8 mi NNW 5.8 mph - N/A Snow Light Snow
4:24 PM 26.6 °F 20.0 °F 26.6 °F 100% 29.75 in 0.8 mi NNW 5.8 mph - N/A Snow Light Snow
4:27 PM 26.6 °F 21.2 °F 26.6 °F 100% 29.76 in 1.0 mi NW 4.6 mph - N/A Snow Light Snow
4:29 PM 26.6 °F 20.0 °F 26.6 °F 100% 29.76 in 1.0 mi NW 5.8 mph - N/A Snow Light Snow
4:31 PM 26.6 °F 21.2 °F 26.6 °F 100% 29.75 in 1.2 mi NW 4.6 mph - N/A Snow Light Snow
4:34 PM 26.6 °F 20.0 °F 26.6 °F 100% 29.76 in 1.5 mi NW 5.8 mph - N/A Snow Light Snow
4:38 PM 26.6 °F 20.0 °F 26.6 °F 100% 29.76 in 2.0 mi NW 5.8 mph - N/A Snow Light Snow
4:41 PM 26.6 °F 20.0 °F 26.6 °F 100% 29.76 in 3.0 mi NW 5.8 mph - N/A Snow Light Snow
4:45 PM 26.6 °F 19.1 °F 26.6 °F 100% 29.76 in 5.0 mi NW 6.9 mph - N/A   Overcast
4:47 PM 26.6 °F 20.0 °F 26.6 °F 100% 29.76 in 5.0 mi NW 5.8 mph - N/A   Overcast
4:55 PM 25.9 °F 19.2 °F 25.9 °F 100% 29.76 in 6.0 mi NW 5.8 mph - 0.02 in   Overcast
5:23 PM 24.8 °F 17.9 °F 24.8 °F 100% 29.77 in 7.0 mi WNW 5.8 mph - N/A   Overcast
5:43 PM 24.8 °F 16.1 °F 24.8 °F 100% 29.78 in 7.0 mi WNW 8.1 mph - N/A   Overcast
5:55 PM 25.0 °F 14.8 °F 25.0 °F 100% 29.79 in 7.0 mi West 10.4 mph - 0.01 in   Overcast
5:58 PM 24.8 °F 16.1 °F 24.8 °F 100% 29.79 in 6.0 mi WNW 8.1 mph - N/A Snow Light Snow
6:03 PM 24.8 °F 16.1 °F 24.8 °F 100% 29.80 in 2.5 mi WNW 8.1 mph - N/A Snow Light Snow
6:05 PM 24.8 °F 15.3 °F 24.8 °F 100% 29.80 in 1.8 mi WNW 9.2 mph - N/A Snow Light Snow
6:07 PM 24.8 °F 14.6 °F 24.8 °F 100% 29.80 in 1.2 mi WNW 10.4 mph - N/A Snow Light Snow
6:08 PM 24.8 °F 14.6 °F 24.8 °F 100% 29.80 in 1.0 mi WNW 10.4 mph - N/A Snow Light Snow
6:11 PM 24.8 °F 14.6 °F 24.8 °F 100% 29.80 in 0.8 mi WNW 10.4 mph - N/A Snow Light Snow
6:17 PM 23.0 °F 11.7 °F 23.0 °F 100% 29.81 in 1.0 mi West 11.5 mph - N/A Snow Light Snow
6:20 PM 23.0 °F 12.4 °F 23.0 °F 100% 29.81 in 1.2 mi West 10.4 mph - N/A Snow Light Snow
6:22 PM 23.0 °F 13.1 °F 23.0 °F 100% 29.81 in 1.5 mi WNW 9.2 mph - N/A Snow Light Snow
6:23 PM 23.0 °F 13.1 °F 23.0 °F 100% 29.81 in 1.5 mi WNW 9.2 mph - N/A Snow Light Snow
6:42 PM 23.0 °F 12.4 °F 23.0 °F 100% 29.82 in 2.0 mi WNW 10.4 mph - N/A Snow Light Snow
6:44 PM 23.0 °F 12.4 °F 23.0 °F 100% 29.82 in 2.0 mi WNW 10.4 mph - N/A Snow Light Snow
6:48 PM 23.0 °F 11.7 °F 23.0 °F 100% 29.82 in 3.0 mi WNW 11.5 mph - N/A Snow Light Snow
6:55 PM 22.3 °F 11.5 °F 22.3 °F 100% 29.82 in 3.0 mi WNW 10.4 mph - 0.00 in Snow Light Snow
7:00 PM 21.2 °F 10.1 °F 21.2 °F 100% 29.82 in 5.0 mi WNW 10.4 mph - N/A   Overcast
7:11 PM 21.2 °F 11.7 °F 21.2 °F 100% 29.83 in 7.0 mi WNW 8.1 mph - N/A   Overcast
7:13 PM 21.2 °F 10.9 °F 21.2 °F 100% 29.83 in 8.0 mi WNW 9.2 mph - N/A   Overcast
7:55 PM 20.8 °F 10.4 °F 20.7 °F 99% 29.85 in 9.0 mi WNW 9.2 mph - 0.00 in   Scattered Clouds
8:55 PM 19.2 °F 7.0 °F 19.0 °F 99% 29.87 in 9.0 mi West 11.5 mph - N/A   Partly Cloudy
9:55 PM 18.1 °F 7.9 °F 18.0 °F 99% 29.88 in 9.0 mi West 8.1 mph - N/A   Clear
10:55 PM 17.6 °F 7.3 °F 17.1 °F 98% 29.92 in 9.0 mi West 8.1 mph - N/A   Clear
11:55 PM 16.9 °F 4.8 °F 16.2 °F 97% 29.93 in 10.0 mi WNW 10.4 mph - N/A   Clear